Location: Platte
(43.3870°N, 98.8440°W)
Time: 23:30:55
(UTC-05:00)

H-2A R/B - Pass Details

Date: 21 May 2018
Orbit: 735 x 836 km, 98.3° (Epoch: 24 June)

Event Time Altitude Azimuth Distance (km) Brightness Sun altitude
Exits shadow 21:44:11 - 132° (SE) 2,305 3.8 -7.6°
Reaches altitude 10° 21:44:22 10° 131° (SE) 2,241 3.7 -7.6°
Maximum altitude 21:48:46 34° 68° (ENE) 1,208 2.8 -8.3°
Drops below altitude 10° 21:53:17 10° 4° (N) 2,290 5.0 -8.9°
Sets 21:55:46 0° 355° (N) 3,234 6.0 -9.3°
